Location: Aalsum
(53.3404°N, 6.0062°E)
Time: 10:39:04
(UTC+00:00)

Cosmos 2279 Rocket - Pass Details

Date: 28 January 2023
Orbit: 964 x 978 km, 83.0° (Epoch: 19 March)

Event Time Altitude Azimuth Distance (km) Brightness Sun altitude
Rises 17:24:04 0° 186° (S) 3,641 7.3 -10.8°
Reaches altitude 10° 17:26:34 10° 186° (S) 2,699 6.6 -11.2°
Maximum altitude 17:32:45 86° 98° (E) 977 4.0 -12.1°
Drops below altitude 10° 17:39:00 10° 11° (NNE) 2,724 6.1 -13.0°
Sets 17:41:31 0° 12° (NNE) 3,677 6.8 -13.4°
